Location: L�Adrech
(44.2500°N, 6.4167°E)
Time: 23:30:22
(UTC+00:00)

STARLINK-35 - Pass Details

Date: 07 June 2020
Orbit: 434 x 435 km, 53.0° (Epoch: 05 July)

Event Time Altitude Azimuth Distance (km) Brightness Sun altitude
Exits shadow 00:57:35 - 113° (ESE) 1,598 6.0 -20.2°
Enters shadow 01:55:13 -70° 236° (SW) 12,431 10.4 -15.5°
Maximum altitude 02:33:13 74° 144° (SE) 456 3.1 -11.3°
